Regional Weather Roundup
Issued by NWS

Home | Current Version | Previous Version | Graphics & Text | Print | Product List | Glossary On
Versions: 1 2 3 4 5 6 7 8 9 10 11 12 13 14 15 16 17 18 19 20 21 22 23 24 25 26 27 28 29 30 31 32 33 34 35 36 37 38 39 40 41 42 43 44 45 46 47 48 49 50
000
ASUS45 KTFX 210304
RWRMT
MONTANA HOURLY WEATHER ROUNDUP
NATIONAL WEATHER SERVICE GREAT FALLS MT
804 PM MST SAT DEC 20 2014

NOTE: "FAIR" INDICATES FEW OR NO CLOUDS BELOW 12000 FEET WITH NO
SIGNIFICANT WEATHER AND/OR OBSTRUCTIONS TO VISIBILITY.

* THESE STATIONS ARE NOT UNDER NWS QUALITY CONTROL. THEY DO NOT
   REPORT WEATHER SUCH AS PRECIPITATION OR FOG.

MTZ001>007-043-210400-
WEST OF THE DIVIDE
CITY           SKY/WX    TMP DP  RH WIND       PRES   REMARKS
KALISPELL      CLOUDY    32  30  92 CALM      29.68F
MISSOULA       CLOUDY    30  30 100 CALM      29.72F
BUTTE          CLOUDY    28  23  81 CALM      29.73F
MULLAN PASS    HVY SNOW  30  27  89 VRB6      29.62F VSB M1/4 WCI  24
* ESSEX        N/A       31  30  96 N/A        N/A
* LINCOLN      N/A       26  24  92 N/A        N/A
* LOOKOUT PASS N/A       32  32 100 S2         N/A
* POLSON       N/A       34  32  92 SE1        N/A
* RONAN APT    CLOUDY    34  30  85 N/A        N/A
* SEELEY LAKE  N/A       27  26  96 NE1        N/A
* THOMP F APT  CLOUDY    28  27  96 S7         N/A   WCI  21
$$

MTZ008-052>055-210400-
SOUTHWEST MONTANA
CITY           SKY/WX    TMP DP  RH WIND       PRES   REMARKS
BOZEMAN        CLOUDY    30  25  82 SE8       29.75F WCI  22
DILLON         CLOUDY    36  25  64 S8        29.76F WCI  30
* W YELLOWSTON CLOUDY    28  26  92 SW4G10     N/A
* THREE FORKS  CLOUDY    41  41 100 SW13G21    N/A
* BOULDER HILL N/A       31  20  64 S14G19     N/A   WCI  21
* MONIDA PASS  N/A       27  27 100 SE17G22    N/A   WCI  14
* RAYNOLDS PAS N/A       29  15  56 S14        N/A   WCI  18
* WHITEHALL    N/A       38  26  62 SW8G16     N/A   WCI  32
* WISE RIVER   N/A       27  23  85 W2         N/A
$$

MTZ009>010-012-014-046-048-049-054-210400-
EAST SLOPES AND CENTRAL MONTANA
CITY           SKY/WX    TMP DP  RH WIND       PRES   REMARKS
CUT BANK       PTCLDY    28  19  69 SE8       29.57F WCI  20
GREAT FALLS    PTCLDY    34  25  70 S9        29.63F WCI  27
HELENA         CLOUDY    36  27  70 CALM      29.68F
* DEARBORN     N/A       43  25  49 S15G21     N/A
* EAST GLACIER N/A       34  27  76 W21G29     N/A   WCI  22
* MONARCH      N/A       34  16  48 S12G17     N/A   WCI  25
* PENDROY      N/A       31  25  78 S7         N/A   WCI  24
* SWEET GRASS  N/A       30  20  66 S14        N/A   WCI  19
$$

MTZ011-013-016-021-035-040-045-047-050-051-210400-
NORTH CENTRAL MONTANA
CITY           SKY/WX    TMP DP  RH WIND       PRES   REMARKS
HAVRE          CLEAR     28  21  75 SW6       29.63F WCI  21
LEWISTOWN      PTCLDY    37  25  62 SW15      29.68F WCI  28
* N BAR RANCH  CLEAR     28  18  66 NW5       29.71F WCI  22
* CHESTER      N/A       28  22  78 S1         N/A
* DENTON       N/A       33  24  70 SW12       N/A   WCI  24
* GEYSER       N/A       30  17  58 S2         N/A
* JUDITH GAP   N/A       32  22  67 SW8        N/A   WCI  25
* LOMA         N/A       33  25  72 NE2        N/A
$$

MTZ017>020-022>027-061-062-210400-
NORTHEAST MONTANA
CITY           SKY/WX    TMP DP  RH WIND       PRES   REMARKS
GLASGOW        CLEAR     27  19  72 CALM      29.71F
GLENDIVE       CLEAR     28  21  75 SW5       29.77F WCI  22
JORDAN         CLEAR     28  23  81 CALM      29.72F
SIDNEY         CLEAR     27  25  92 CALM      29.78F
WOLF POINT     CLEAR     25  19  78 CALM      29.75F
* BEAVER HILL  N/A       31  23  72 S10        N/A   WCI  22
* CIRCLE       N/A       32  25  75 SW3        N/A
* LINDSAY DVD  N/A       29  21  72 SW9        N/A   WCI  21
* SACO         N/A       27  21  78 S9         N/A   WCI  18
$$

MTZ028>042-056>058-210400-
SOUTHCENTRAL AND SOUTHEAST MONTANA
CITY           SKY/WX    TMP DP  RH WIND       PRES   REMARKS
BAKER          CLEAR     27  23  85 CALM      29.78F
BILLINGS       MOCLDY    36  21  54 W15       29.75F WCI  27
LIVINGSTON     MOCLDY    43  21  42 SW26G40   29.71F
MILES CITY     PTCLDY    30  21  69 SE8       29.76F WCI  22
* LAUREL APT   PTCLDY    34  18  52 SW6        N/A   WCI  29
* ROUNDUP APT  PTCLDY    36  21  54 SW6        N/A   WCI  31
* ALZADA       N/A       33  24  70 E2         N/A
* HYSHAM       N/A       37  19  48 W3         N/A
* LAME DEER    N/A       34  23  64 SW6        N/A   WCI  29
* REED POINT   N/A       32  25  75 E2         N/A
* ROSCOE HILL  N/A       34  10  37 SE6G13     N/A   WCI  29
$$

REGIONAL REPORTS...DAKOTAS
CITY           SKY/WX    TMP DP  RH WIND       PRES   REMARKS
WILLISTON      CLEAR     28  25  89 SE5       29.74F WCI  22
DICKINSON      MOCLDY    30  23  75 W8        29.75F WCI  22
BEACH          CLEAR     27  25  92 CALM      29.77F
CROSBY         CLEAR     30  30 100 SW9       29.71F WCI  22
WATFORD CITY   CLEAR     28  25  89 SW6       29.73F WCI  21
BISMARCK       PTCLDY    21  19  92 SE3       29.81F
GRAND FORKS    LGT SNOW  30  28  92 S15       29.89S VSB 1    WCI  19
FARGO          FOG       34  28  79 S21G29    29.90F WCI  22
BUFFALO SD     CLOUDY    34  25  70 SW8       29.73F WCI  27
RAPID CITY     CLOUDY    34  27  76 CALM      29.84F
$$

REGIONAL REPORTS...WYOMING/IDAHO/WASHINGTON
CITY           SKY/WX    TMP DP  RH WIND       PRES   REMARKS
GILLETTE       CLOUDY    34  27  76 S10       29.79F WCI  26
SHERIDAN       PTCLDY    23  18  81 CALM      29.77F
CODY           PTCLDY    34  23  64 SE14      29.78F WCI  24
YELLOWSTONE LA CLOUDY    27  21  78 W8        29.88F WCI  19
SALMON         CLOUDY    34  28  79 N6        29.81F WCI  29
MULLAN PASS    HVY SNOW  30  27  89 VRB6      29.62S VSB M1/4 WCI  24
SAND POINT     LGT RAIN  34  34 100 CALM      29.67F
SPOKANE        LGT RAIN  39  39 100 SE14G23   29.59F WCI  31

$$



USA.gov is the U.S. government's official web portal to all federal, state and local government web resources and services.